C/2016 R2 ( PanSTARRS )

Japanese version
Home page
Updated on December 31, 2016

---------------------------------------------------------------------

* Profile

Discovery Date September 7, 2016
Magnitude 19.1 mag
Discoverer Pan-STARRS 1 telescope (Haleakala)

* Pictures

* Orbital Elements

Epoch 2018 May 2.0 TT = JDT 2458240.5
T 2018 May  9.50236 TT                                  MPCW
q   2.6020865            (2000.0)            P               Q
z  +0.0013039      Peri.   33.19205     -0.14720498     -0.52444368
 +/-0.0000830      Node    80.56561     +0.61563119     -0.71219154
e   0.9966070      Incl.   58.22498     +0.77416338     +0.46662838
From 74 observations 2016 Aug. 30-Nov. 8, mean residual 0".5.

* Finding Charts

* Magnitudes Graph

        m1 = 4.0 + 5 log d + 10.0 log r

---------------------------------------------------------------------

The orbital elements are published on M.P.E.C. 2016-V116.
The charts are made with StellaNavigator Ver.10 (AstroArts).
The magnitudes graphs are made with Comet for Windows.

---------------------------------------------------------------------

Copyright(C) Seiichi Yoshida (comet@aerith.net). All rights reserved.